Вернуться в каталог

DELTA 2 R/B(2)

АктивенGTO
NORAD 22177·ROCKET BODY·🇺🇸 United States

Запущен Oct 12, 1992 с Cape Canaveral Space Force Station

Loading…

TLE

УстаревшееSource: Space-Track

Эпоха: Sep 9, 2026, 13:35 UTC

1 22177U 92066C   26252.56642156 -.00000194  00000-0  00000-0 0  9999
2 22177  19.3718  84.1056 6840617 254.3546  22.8260  2.18728863 51556

Отслеживайте DELTA 2 R/B(2) в реальном времени с AllMySat

Download on the App Store